This is the latest recevied weather packets stored in our database for station/object WX4ET. If no packets are shown the sender has not sent any weather packets the latest 10 day(s).
| Time | Temp. | Humidity | Pressure | Rain* | Wind** | Luminosity | Snow |
|---|---|---|---|---|---|---|---|
| 1777572666 | 18.89° C | 47% | 1008.1 hPa | 0 mm | - | 664 W/m² | - |
| 1777572365 | 18.89° C | 48% | 1008.2 hPa | 0 mm | - | 664 W/m² | - |
| 1777572062 | 19.44° C | 49% | 1008 hPa | 0 mm | - | 659 W/m² | - |
| 1777571762 | 18.89° C | 52% | 1008.1 hPa | 0 mm | - | 675 W/m² | - |
| 1777571460 | 18.89° C | 48% | 1008.1 hPa | 0 mm | - | 704 W/m² | - |
| 1777571156 | 18.33° C | 49% | 1008.3 hPa | 0 mm | - | 679 W/m² | - |
| 1777570851 | 18.89° C | 48% | 1008.4 hPa | 0 mm | - | 664 W/m² | - |
| 1777570548 | 18.89° C | 49% | 1008.3 hPa | 0 mm | - | 669 W/m² | - |
| 1777570245 | 18.33° C | 51% | 1008.4 hPa | 0 mm | - | 665 W/m² | - |
| 1777569945 | 18.89° C | 51% | 1008.4 hPa | 0 mm | - | 645 W/m² | - |
| 1777569641 | 18.33° C | 51% | 1008.4 hPa | 0 mm | - | 638 W/m² | - |
| 1777569338 | 18.89° C | 50% | 1008.8 hPa | 0 mm | - | 675 W/m² | - |
| 1777569034 | 18.89° C | 51% | 1008.5 hPa | 0 mm | - | 682 W/m² | - |
| 1777568731 | 17.78° C | 52% | 1008.8 hPa | 0 mm | - | 693 W/m² | - |
| 1777568428 | 17.78° C | 53% | 1008.6 hPa | 0 mm | - | 157 W/m² | - |
| 1777568125 | 18.33° C | 51% | 1008.6 hPa | 0 mm | - | 173 W/m² | - |
| 1777567822 | 17.78° C | 54% | 1008.8 hPa | 0 mm | - | 707 W/m² | - |
| 1777567518 | 18.33° C | 54% | 1008.7 hPa | 0 mm | - | 670 W/m² | - |
| 1777567215 | 18.89° C | 53% | 1008.8 hPa | 0 mm | - | 657 W/m² | - |
| 1777566914 | 17.78° C | 52% | 1008.7 hPa | 0 mm | - | 654 W/m² | - |
| 1777566611 | 18.33° C | 52% | 1008.9 hPa | 0 mm | - | 661 W/m² | - |
| 1777566309 | 17.78° C | 58% | 1008.8 hPa | 0 mm | - | 635 W/m² | - |
| 1777566006 | 17.78° C | 57% | 1008.8 hPa | 0 mm | - | 451 W/m² | - |
| 1777565701 | 17.22° C | 56% | 1008.9 hPa | 0 mm | - | 706 W/m² | - |
| 1777565398 | 16.67° C | 58% | 1008.7 hPa | 0 mm | - | 317 W/m² | - |
* Rain latest hour (hover to see other rain measurements)
** Current wind speed in m/s (hover to see current wind gust speed)